Location: Unspecified
(17.6330°N, 0.0000°E)
Time: 05:50:10
(UTC+00:00)

A-11 Canister half - Pass Details

Date: 23 June 2019
Orbit: 1514 x 1686 km, 47.2° (Epoch: 12 October)

Event Time Altitude Azimuth Distance (km) Brightness Sun altitude
Rises 11:02:19 0° 275° (W) 4,916 11.5 74.8°
Reaches altitude 10° 11:07:05 10° 294° (WNW) 3,907 11.2 75.9°
Maximum altitude 11:13:13 18° 332° (NNW) 3,296 11.0 77.2°
Drops below altitude 10° 11:19:17 10° 12° (NNE) 3,829 11.4 78.4°
Sets 11:23:56 0° 31° (NNE) 4,780 11.7 79.3°
